EK1111 WMKK-WSSS

Flight info

Callsign EK1111
Flight time 0h 45m
Altitude 27000
Route RUSBU2D RUSBU Y511 TOPOR A464 ARAMA DCT TEBUN TEBUN1B
Aircraft B77W/H-SDE1E2E3FGHIJ2J3J4J5M1RWXY/LB1D1

Departure

Time 2026-05-07 08:44
Airport Kuala Lumpur International Airport (WMKK)

Arrival

Time 2026-05-07 09:29
Airport Singapore Changi Airport (WSSS)
Time Latitude Longitude Altitude Speed Heading
2026-05-07 08:42 3.23997 101.65670 16036 ft 412 kts 139°
2026-05-07 08:42 3.22489 101.66892 15935 ft 411 kts 139°
2026-05-07 08:43 3.20313 101.68655 15783 ft 410 kts 139°
2026-05-07 08:43 3.18097 101.70450 15629 ft 409 kts 139°
2026-05-07 08:43 3.15890 101.72238 15459 ft 408 kts 139°
2026-05-07 08:43 3.13680 101.74027 15305 ft 407 kts 139°
2026-05-07 08:44 3.11476 101.75812 15159 ft 406 kts 139°
2026-05-07 08:44 3.09281 101.77589 15061 ft 405 kts 139°
2026-05-07 08:44 3.07096 101.79358 14935 ft 404 kts 139°
2026-05-07 08:44 3.04908 101.81129 14801 ft 404 kts 139°
2026-05-07 08:45 3.02737 101.82886 14679 ft 403 kts 139°
2026-05-07 08:45 3.00554 101.84654 14553 ft 402 kts 139°
2026-05-07 08:45 2.98378 101.86415 14426 ft 402 kts 139°
2026-05-07 08:45 2.96220 101.88161 14359 ft 401 kts 139°
2026-05-07 08:46 2.94051 101.89917 14316 ft 401 kts 139°
2026-05-07 08:46 2.91880 101.91674 14276 ft 401 kts 139°
2026-05-07 08:46 2.89720 101.93421 14275 ft 401 kts 139°
2026-05-07 08:46 2.87548 101.95179 14271 ft 400 kts 139°
2026-05-07 08:47 2.85409 101.96911 14275 ft 400 kts 139°
2026-05-07 08:47 2.83260 101.98650 14272 ft 400 kts 139°
2026-05-07 08:47 2.81087 102.00406 14256 ft 400 kts 139°
2026-05-07 08:47 2.78925 102.02153 14256 ft 400 kts 139°
2026-05-07 08:48 2.76753 102.03913 14259 ft 400 kts 139°
2026-05-07 08:48 2.74587 102.05668 14269 ft 400 kts 139°
2026-05-07 08:48 2.72424 102.07418 14280 ft 400 kts 139°
2026-05-07 08:48 2.70252 102.09174 14270 ft 401 kts 139°
2026-05-07 08:49 2.68081 102.10929 14272 ft 402 kts 139°
2026-05-07 08:49 2.65910 102.12684 14280 ft 402 kts 139°
2026-05-07 08:49 2.63732 102.14447 14271 ft 403 kts 139°
2026-05-07 08:49 2.61542 102.16218 14270 ft 404 kts 139°
2026-05-07 08:50 2.59357 102.17986 14267 ft 404 kts 139°
2026-05-07 08:50 2.57172 102.19753 14265 ft 404 kts 139°
2026-05-07 08:50 2.54986 102.21521 14272 ft 404 kts 139°
2026-05-07 08:50 2.52803 102.23286 14270 ft 404 kts 139°
2026-05-07 08:51 2.50618 102.25052 14261 ft 403 kts 139°
2026-05-07 08:51 2.48467 102.26792 14260 ft 403 kts 139°
2026-05-07 08:51 2.46289 102.28552 14264 ft 402 kts 139°
2026-05-07 08:51 2.44117 102.30308 14263 ft 402 kts 139°
2026-05-07 08:52 2.41938 102.32069 14265 ft 401 kts 139°
2026-05-07 08:52 2.39768 102.33823 14267 ft 401 kts 139°
2026-05-07 08:52 2.37596 102.35578 14269 ft 401 kts 139°
2026-05-07 08:52 2.35427 102.37332 14270 ft 401 kts 139°
2026-05-07 08:53 2.33259 102.39085 14265 ft 401 kts 139°
2026-05-07 08:53 2.31088 102.40840 14268 ft 401 kts 139°
2026-05-07 08:53 2.28919 102.42593 14268 ft 401 kts 139°
2026-05-07 08:53 2.26747 102.44348 14267 ft 402 kts 139°
2026-05-07 08:54 2.24568 102.46110 14270 ft 402 kts 139°
2026-05-07 08:54 2.22391 102.47868 14271 ft 402 kts 140°
2026-05-07 08:54 2.20226 102.49618 14273 ft 402 kts 140°
2026-05-07 08:54 2.18048 102.51378 14272 ft 403 kts 140°
2026-05-07 08:55 2.15869 102.53138 14272 ft 403 kts 140°
2026-05-07 08:55 2.13715 102.54879 14270 ft 403 kts 140°
2026-05-07 08:55 2.11536 102.56640 14270 ft 403 kts 140°
2026-05-07 08:55 2.09357 102.58400 14277 ft 403 kts 140°
2026-05-07 08:56 2.07174 102.60164 14269 ft 403 kts 140°
2026-05-07 08:56 2.04994 102.61926 14269 ft 403 kts 140°
2026-05-07 08:56 2.02815 102.63685 14271 ft 403 kts 140°
2026-05-07 08:56 2.00638 102.65444 14272 ft 402 kts 140°
2026-05-07 08:57 1.98471 102.67195 14269 ft 402 kts 140°
2026-05-07 08:57 1.96295 102.68952 14270 ft 402 kts 140°
2026-05-07 08:57 1.94141 102.70692 14269 ft 402 kts 140°
2026-05-07 08:57 1.91965 102.72450 14272 ft 402 kts 140°
2026-05-07 08:58 1.89789 102.74207 14275 ft 402 kts 140°
2026-05-07 08:58 1.87618 102.75961 14249 ft 401 kts 140°
2026-05-07 08:58 1.85453 102.77710 13947 ft 399 kts 140°
2026-05-07 08:58 1.83298 102.79450 13536 ft 398 kts 140°
2026-05-07 08:59 1.81129 102.81201 13218 ft 401 kts 140°
2026-05-07 08:59 1.78964 102.82950 13174 ft 398 kts 140°
2026-05-07 08:59 1.76818 102.84683 13118 ft 395 kts 140°
2026-05-07 08:59 1.74710 102.86385 13013 ft 394 kts 140°
2026-05-07 09:00 1.72552 102.88128 12856 ft 394 kts 140°
2026-05-07 09:00 1.70445 102.89829 12715 ft 394 kts 140°
2026-05-07 09:00 1.68316 102.91549 12595 ft 393 kts 140°
2026-05-07 09:00 1.66189 102.93266 12490 ft 392 kts 140°
2026-05-07 09:01 1.64062 102.94983 12311 ft 393 kts 140°
2026-05-07 09:01 1.61945 102.96693 11836 ft 388 kts 140°
2026-05-07 09:01 1.59862 102.98374 11408 ft 383 kts 140°
2026-05-07 09:01 1.57813 103.00028 10996 ft 382 kts 140°
2026-05-07 09:02 1.55816 103.01641 10597 ft 382 kts 140°
2026-05-07 09:02 1.53755 103.03304 10175 ft 380 kts 140°
2026-05-07 09:02 1.51696 103.04967 9775 ft 379 kts 140°
2026-05-07 09:02 1.49646 103.06622 9336 ft 378 kts 140°
2026-05-07 09:03 1.47632 103.08248 8899 ft 376 kts 140°
2026-05-07 09:03 1.45599 103.09889 8447 ft 374 kts 140°
2026-05-07 09:03 1.43578 103.11520 8018 ft 372 kts 141°
2026-05-07 09:03 1.41567 103.13144 7589 ft 370 kts 141°
2026-05-07 09:04 1.39582 103.14746 7177 ft 367 kts 141°
2026-05-07 09:04 1.37601 103.16346 6754 ft 365 kts 141°
2026-05-07 09:04 1.35630 103.17938 6324 ft 362 kts 141°
2026-05-07 09:04 1.33690 103.19504 5839 ft 354 kts 141°
2026-05-07 09:05 1.31793 103.21035 5293 ft 346 kts 141°
2026-05-07 09:05 1.29945 103.22526 4554 ft 343 kts 141°
2026-05-07 09:05 1.28094 103.24023 3714 ft 341 kts 140°
2026-05-07 09:05 1.26561 103.25795 2946 ft 339 kts 117°
2026-05-07 09:06 1.25897 103.28035 2665 ft 340 kts 96°
2026-05-07 09:06 1.25942 103.30347 2476 ft 334 kts 79°
2026-05-07 09:06 1.26527 103.32543 2310 ft 322 kts 74°
2026-05-07 09:06 1.27163 103.34641 2265 ft 308 kts 73°
2026-05-07 09:07 1.27779 103.36641 2257 ft 294 kts 74°
2026-05-07 09:07 1.28364 103.38549 2256 ft 280 kts 74°
2026-05-07 09:07 1.28916 103.40365 2252 ft 265 kts 74°
2026-05-07 09:07 1.29434 103.42084 2252 ft 255 kts 74°
2026-05-07 09:08 1.29936 103.43763 2270 ft 252 kts 74°
2026-05-07 09:08 1.30426 103.45406 2250 ft 241 kts 74°
2026-05-07 09:08 1.30890 103.46971 2243 ft 230 kts 74°
2026-05-07 09:08 1.31336 103.48475 2315 ft 222 kts 74°
2026-05-07 09:09 1.31763 103.49896 2277 ft 201 kts 70°
2026-05-07 09:09 1.32499 103.51006 2267 ft 192 kts 47°
2026-05-07 09:09 1.33442 103.52016 2347 ft 205 kts 48°
2026-05-07 09:09 1.34397 103.53050 2283 ft 200 kts 48°
2026-05-07 09:10 1.35349 103.54074 2270 ft 197 kts 48°
2026-05-07 09:10 1.36265 103.55064 2276 ft 198 kts 48°
2026-05-07 09:10 1.37201 103.56076 2279 ft 199 kts 48°
2026-05-07 09:10 1.38138 103.57085 2280 ft 199 kts 48°
2026-05-07 09:11 1.39083 103.58099 2293 ft 200 kts 48°
2026-05-07 09:11 1.40031 103.59123 2284 ft 200 kts 48°
2026-05-07 09:11 1.40977 103.60143 2288 ft 200 kts 48°
2026-05-07 09:11 1.41916 103.61152 2289 ft 200 kts 47°
2026-05-07 09:12 1.42862 103.62167 2299 ft 200 kts 48°
2026-05-07 09:12 1.43814 103.63190 2297 ft 201 kts 49°
2026-05-07 09:12 1.44766 103.64213 2293 ft 201 kts 48°
2026-05-07 09:12 1.45715 103.65235 2295 ft 200 kts 48°
2026-05-07 09:13 1.46655 103.66250 2288 ft 198 kts 48°
2026-05-07 09:13 1.47586 103.67257 2292 ft 198 kts 48°
2026-05-07 09:13 1.48511 103.68252 2299 ft 198 kts 48°
2026-05-07 09:13 1.49456 103.69264 2290 ft 199 kts 49°
2026-05-07 09:14 1.50403 103.70274 2301 ft 199 kts 48°
2026-05-07 09:14 1.51347 103.71286 2294 ft 199 kts 48°
2026-05-07 09:14 1.52294 103.72302 2309 ft 200 kts 48°
2026-05-07 09:14 1.53245 103.73322 2303 ft 201 kts 48°
2026-05-07 09:15 1.54199 103.74347 2313 ft 201 kts 48°
2026-05-07 09:15 1.55158 103.75374 2301 ft 202 kts 48°
2026-05-07 09:15 1.56115 103.76399 2305 ft 202 kts 48°
2026-05-07 09:15 1.57074 103.77430 2297 ft 201 kts 48°
2026-05-07 09:16 1.58013 103.78437 2306 ft 201 kts 48°
2026-05-07 09:16 1.58990 103.79474 2309 ft 202 kts 48°
2026-05-07 09:16 1.59953 103.80497 2306 ft 202 kts 48°
2026-05-07 09:16 1.60909 103.81522 2292 ft 201 kts 48°
2026-05-07 09:17 1.61845 103.82526 2293 ft 199 kts 48°
2026-05-07 09:17 1.62785 103.83533 2295 ft 198 kts 48°
2026-05-07 09:17 1.63729 103.84540 2302 ft 198 kts 48°
2026-05-07 09:17 1.64672 103.85549 2292 ft 199 kts 49°
2026-05-07 09:18 1.65616 103.86556 2294 ft 199 kts 48°
2026-05-07 09:18 1.66558 103.87566 2287 ft 198 kts 48°
2026-05-07 09:18 1.67493 103.88572 2291 ft 198 kts 48°
2026-05-07 09:18 1.68429 103.89579 2299 ft 198 kts 48°
2026-05-07 09:19 1.69365 103.90593 2298 ft 198 kts 52°
2026-05-07 09:19 1.69878 103.91816 2278 ft 191 kts 90°
2026-05-07 09:19 1.69535 103.93111 2301 ft 197 kts 118°
2026-05-07 09:19 1.68896 103.94311 2297 ft 196 kts 119°
2026-05-07 09:20 1.68275 103.95478 2273 ft 184 kts 119°
2026-05-07 09:20 1.67682 103.96592 2259 ft 179 kts 119°
2026-05-07 09:20 1.67090 103.97698 2283 ft 183 kts 119°
2026-05-07 09:20 1.66485 103.98823 2280 ft 183 kts 119°
2026-05-07 09:21 1.65887 103.99934 2287 ft 184 kts 119°
2026-05-07 09:21 1.65301 104.01021 2291 ft 185 kts 120°
2026-05-07 09:21 1.64693 104.02158 2287 ft 186 kts 119°
2026-05-07 09:21 1.64084 104.03297 2279 ft 185 kts 119°
2026-05-07 09:22 1.63478 104.04431 2282 ft 185 kts 119°
2026-05-07 09:22 1.62875 104.05565 2272 ft 183 kts 119°
2026-05-07 09:22 1.62280 104.06680 2276 ft 181 kts 119°
2026-05-07 09:22 1.61617 104.07723 2255 ft 176 kts 138°
2026-05-07 09:23 1.60615 104.08471 2310 ft 184 kts 144°
2026-05-07 09:23 1.59508 104.09094 2256 ft 181 kts 168°
2026-05-07 09:23 1.58269 104.09214 2298 ft 182 kts 178°
2026-05-07 09:23 1.57023 104.08974 2285 ft 183 kts 200°
2026-05-07 09:24 1.55824 104.08497 2286 ft 187 kts 204°
2026-05-07 09:24 1.54662 104.07956 2274 ft 181 kts 204°
2026-05-07 09:24 1.53543 104.07449 2289 ft 175 kts 203°
2026-05-07 09:24 1.52442 104.06964 2282 ft 175 kts 203°
2026-05-07 09:25 1.51333 104.06482 2296 ft 174 kts 202°
2026-05-07 09:25 1.50202 104.05991 2276 ft 175 kts 202°
2026-05-07 09:25 1.49113 104.05520 2256 ft 170 kts 202°
2026-05-07 09:25 1.48028 104.05052 2263 ft 170 kts 203°
2026-05-07 09:26 1.47299 104.04737 2285 ft 174 kts 203°
2026-05-07 09:26 1.45802 104.04090 1993 ft 175 kts 203°
2026-05-07 09:26 1.44698 104.03612 1766 ft 171 kts 203°
2026-05-07 09:26 1.43615 104.03145 1562 ft 170 kts 202°
2026-05-07 09:27 1.42522 104.02672 1359 ft 172 kts 202°
2026-05-07 09:27 1.41428 104.02199 1115 ft 170 kts 203°
2026-05-07 09:27 1.39635 104.01424 775 ft 169 kts 201°
2026-05-07 09:28 1.38548 104.00955 570 ft 170 kts 201°
2026-05-07 09:28 1.37470 104.00486 334 ft 169 kts 201°
2026-05-07 09:28 1.36417 103.99992 132 ft 169 kts 201°
2026-05-07 09:28 1.35354 103.99552 36 ft 152 kts 201°
2026-05-07 09:29 1.34550 103.99262 34 ft 85 kts 216°
2026-05-07 09:29 1.34375 103.99038 35 ft 13 kts 239°
2026-05-07 09:29 1.34361 103.99012 34 ft 0 kts 235°
2026-05-07 09:29 1.34357 103.99008 34 ft 1 kts 233°
2026-05-07 09:30 1.34350 103.98999 34 ft 2 kts 232°
2026-05-07 09:30 1.34340 103.98986 33 ft 3 kts 229°
2026-05-07 09:30 1.34320 103.98961 33 ft 7 kts 232°
2026-05-07 09:30 1.34312 103.98895 31 ft 13 kts 287°
2026-05-07 09:31 1.34388 103.98851 31 ft 15 kts 10°
2026-05-07 09:31 1.34486 103.98883 30 ft 15 kts 19°
2026-05-07 09:31 1.34581 103.98915 30 ft 15 kts 19°
2026-05-07 09:31 1.34681 103.98936 30 ft 15 kts 18°
2026-05-07 09:32 1.34757 103.98977 30 ft 12 kts 32°
2026-05-07 09:32 1.34821 103.99026 30 ft 12 kts 51°
2026-05-07 09:32 1.34854 103.99098 30 ft 12 kts 69°
2026-05-07 09:32 1.34908 103.99155 31 ft 12 kts 27°
2026-05-07 09:33 1.34975 103.99186 31 ft 0 kts 19°
2026-05-07 09:33 1.34976 103.99186 31 ft 0 kts 19°
2026-05-07 09:33 1.34977 103.99187 31 ft 0 kts 19°
2026-05-07 09:34 1.34981 103.99188 31 ft 2 kts 19°
2026-05-07 09:34 1.35031 103.99206 30 ft 13 kts 23°
2026-05-07 09:34 1.35152 103.99259 30 ft 24 kts 22°
2026-05-07 09:34 1.35338 103.99333 31 ft 31 kts 25°
2026-05-07 09:35 1.35529 103.99421 31 ft 30 kts 24°
2026-05-07 09:35 1.35719 103.99505 31 ft 30 kts 23°
2026-05-07 09:35 1.35846 103.99499 30 ft 0 kts 315°
2026-05-07 09:36 1.35852 103.99494 30 ft 3 kts 315°